sat.trackr.live / text

‹ back to catalog

STARLINK-35170

NORAD 65532 · 2025-200N

PAYLOAD ACTIVE UNKNOWN

§ Identity

Operator
Country
US
Launch date
2025-09-06
Launch site
AFWTR
Launch vehicle
Mass (kg)
RCS (m²)

Purposes: comms

External: N2YO · Heavens-Above · Gunter

§ Orbital elements

Epoch: 2026-05-25T04:17:31.919424Z

Period
95.64 min
Inclination
97.4465°
Eccentricity
0.0002590
Mean motion
15.05660954 rev/d
Perigee alt
547.7 km
Apogee alt
551.3 km
Semi-major
6,927.6 km
B*
3.7620e-4
RAAN
214.8776°
Arg perigee
131.2295°
Mean anomaly
228.9155°
Rev number
4,064

§ Raw data

STARLINK-351701 65532U 25200N   26145.17884166  .00005375  00000+0  37620-3 0  99992 65532  97.4465 214.8776 0002590 131.2295 228.9155 15.05660954 40649

JSON: /api/v1/satellites/65532 · /tle

For live sub-satellite position, see the globe view (requires WebGL).

§ Visibility from observer

Set your observer location to see the next 7 days of passes ≥ 10°. The values pass through the URL so the page stays shareable.

No JS? Fill the form by hand. The geolocation button needs JavaScript.